Location: Amon Carter Post Office
(32.8281°N, 97.0484°W)
Time: 10:39:57
(UTC+00:00)

SL-4 R/B - Pass Details

Date: 10 July 2022
Orbit: 425 x 653 km, 51.6° (Epoch: 13 August)

Event Time Altitude Azimuth Distance (km) Brightness Sun altitude
Rises 02:18:18 0° 193° (SSW) 2,384 5.1 -7.9°
Reaches altitude 10° 02:20:49 10° 175° (S) 1,508 3.9 -8.4°
Maximum altitude 02:23:15 19° 128° (SE) 1,086 2.9 -8.8°
Drops below altitude 10° 02:25:41 10° 81° (E) 1,512 3.8 -9.2°
Sets 02:28:13 0° 63° (ENE) 2,394 5.0 -9.7°
